When you browse on this site, cookies collect data to enhance your experience and personalize the content and advertising you see.
Visit our Privacy Policy to learn more. By continuing to use the site, you agree to this use of cookies and data.
  • In United Kingdom
  • List of Countries
  • For 7 days
  • Water Temperature
  • Weather Map
  • Weather Widgets
  • user-avatar
    Login

    Hourly Weather Dumfries

    Today, 5 April, Sunday

    Time Temperature Precipitation Wind Pressure Humidity
    00:00 +6°C° 0 mm 1 mps 756 mmHg 91%
    01:00 +6°C° 0 mm 1 mps 756 mmHg 91%
    02:00 +6°C° 0 mm 1 mps 755 mmHg 91%
    03:00 +6°C° 0 mm 1 mps 755 mmHg 91%
    04:00 +5°C° 0 mm 1 mps 755 mmHg 91%
    05:00 +5°C° 0 mm 1 mps 754 mmHg 91%
    06:00 +5°C° 0 mm 1 mps 754 mmHg 90%
    07:00 +6°C° 0 mm 2 mps 754 mmHg 85%
    08:00 +7°C° 0 mm 2 mps 753 mmHg 81%
    09:00 +9°C° 0 mm 2 mps 753 mmHg 76%
    10:00 +11°C° 0 mm 3 mps 752 mmHg 69%
    11:00 +12°C° 0 mm 4 mps 752 mmHg 63%
    12:00 +14°C° 0 mm 4 mps 751 mmHg 56%
    13:00 +15°C° 0 mm 5 mps 750 mmHg 55%
    14:00 +15°C° 0 mm 5 mps 749 mmHg 54%
    15:00 +16°C° 0 mm 6 mps 749 mmHg 53%
    16:00 +15°C° 0 mm 5 mps 748 mmHg 58%
    17:00 +15°C° 0 mm 5 mps 747 mmHg 63%
    18:00 +14°C° 0 mm 4 mps 747 mmHg 68%
    19:00 +13°C° 0 mm 4 mps 746 mmHg 71%
    20:00 +13°C° 0 mm 4 mps 746 mmHg 74%
    21:00 +12°C° 0 mm 4 mps 746 mmHg 77%
    22:00 +12°C° 0.6 mm 5 mps 745 mmHg 81%
    23:00 +12°C° 0.6 mm 5 mps 745 mmHg 84%

    Tomorrow, 6 April, Monday

    Time Temperature Precipitation Wind Pressure Humidity
    00:00 +11°C° 0.6 mm 6 mps 745 mmHg 88%
    01:00 +11°C° 0.9 mm 6 mps 745 mmHg 88%
    02:00 +10°C° 0.9 mm 7 mps 745 mmHg 89%
    03:00 +10°C° 0.9 mm 8 mps 745 mmHg 89%
    04:00 +9°C° 0.3 mm 7 mps 746 mmHg 88%
    05:00 +8°C° 0.3 mm 7 mps 747 mmHg 87%
    06:00 +7°C° 0.3 mm 6 mps 748 mmHg 85%
    07:00 +6°C° 0 mm 7 mps 749 mmHg 81%
    08:00 +6°C° 0 mm 8 mps 750 mmHg 76%
    09:00 +7°C° 0 mm 8 mps 752 mmHg 71%
    10:00 +7°C° 0.1 mm 8 mps 753 mmHg 71%
    11:00 +7°C° 0.1 mm 8 mps 754 mmHg 71%
    12:00 +8°C° 0.1 mm 7 mps 755 mmHg 71%
    13:00 +9°C° 0.1 mm 7 mps 756 mmHg 66%
    14:00 +9°C° 0.1 mm 7 mps 757 mmHg 61%
    15:00 +10°C° 0.1 mm 7 mps 758 mmHg 56%
    16:00 +9°C° 0 mm 6 mps 759 mmHg 58%
    17:00 +8°C° 0 mm 5 mps 760 mmHg 60%
    18:00 +7°C° 0 mm 4 mps 761 mmHg 63%
    19:00 +7°C° 0 mm 3 mps 762 mmHg 67%
    20:00 +6°C° 0 mm 2 mps 763 mmHg 71%
    21:00 +5°C° 0 mm 2 mps 764 mmHg 76%
    22:00 +5°C° 0 mm 1 mps 765 mmHg 78%
    23:00 +5°C° 0 mm 1 mps 765 mmHg 79%

    Day after tomorrow, 7 April, Tuesday

    Time Temperature Precipitation Wind Pressure Humidity
    00:00 +5°C° 0 mm 1 mps 766 mmHg 81%
    01:00 +5°C° 0 mm 1 mps 766 mmHg 83%
    02:00 +4°C° 0 mm 1 mps 766 mmHg 84%
    03:00 +4°C° 0 mm 1 mps 766 mmHg 86%
    04:00 +4°C° 0 mm 1 mps 767 mmHg 87%
    05:00 +4°C° 0 mm 1 mps 767 mmHg 89%
    06:00 +4°C° 0 mm 1 mps 767 mmHg 90%
    07:00 +5°C° 0 mm 2 mps 767 mmHg 82%
    08:00 +7°C° 0 mm 3 mps 767 mmHg 74%
    09:00 +8°C° 0 mm 4 mps 767 mmHg 66%
    10:00 +10°C° 0 mm 4 mps 767 mmHg 66%
    11:00 +9°C° 0 mm 5 mps 767 mmHg 66%
    12:00 +10°C° 0 mm 6 mps 767 mmHg 66%
    13:00 +10°C° 0 mm 6 mps 767 mmHg 63%
    14:00 +11°C° 0 mm 6 mps 767 mmHg 59%
    15:00 +11°C° 0 mm 7 mps 766 mmHg 56%
    16:00 +10°C° 0 mm 6 mps 766 mmHg 60%
    17:00 +9°C° 0 mm 5 mps 766 mmHg 64%
    18:00 +8°C° 0 mm 4 mps 766 mmHg 68%
    19:00 +7°C° 0 mm 4 mps 766 mmHg 72%
    20:00 +7°C° 0 mm 3 mps 766 mmHg 75%
    21:00 +5°C° 0 mm 3 mps 766 mmHg 78%
    22:00 +5°C° 0 mm 3 mps 766 mmHg 81%
    23:00 +5°C° 0 mm 3 mps 766 mmHg 83%

    8 April, Wednesday

    Time Temperature Precipitation Wind Pressure Humidity
    00:00 +5°C° 0 mm 3 mps 766 mmHg 85%
    01:00 +5°C° 0 mm 3 mps 766 mmHg 87%
    02:00 +5°C° 0 mm 3 mps 766 mmHg 89%
    03:00 +5°C° 0 mm 3 mps 766 mmHg 91%
    04:00 +6°C° 0 mm 2 mps 766 mmHg 91%
    05:00 +6°C° 0 mm 2 mps 766 mmHg 91%
    06:00 +6°C° 0 mm 2 mps 766 mmHg 91%
    07:00 +7°C° 0.1 mm 2 mps 766 mmHg 89%
    08:00 +7°C° 0.1 mm 3 mps 766 mmHg 86%
    09:00 +8°C° 0.1 mm 3 mps 766 mmHg 84%
    10:00 +8°C° 0 mm 3 mps 766 mmHg 83%
    11:00 +9°C° 0 mm 3 mps 766 mmHg 81%
    12:00 +9°C° 0 mm 3 mps 766 mmHg 80%
    13:00 +9°C° 0 mm 3 mps 765 mmHg 80%
    14:00 +9°C° 0 mm 3 mps 765 mmHg 79%
    15:00 +10°C° 0 mm 3 mps 765 mmHg 79%
    16:00 +9°C° 0 mm 2 mps 765 mmHg 81%
    17:00 +9°C° 0 mm 2 mps 765 mmHg 84%
    18:00 +9°C° 0 mm 2 mps 765 mmHg 86%
    19:00 +9°C° 0 mm 2 mps 766 mmHg 88%
    20:00 +8°C° 0 mm 2 mps 766 mmHg 91%
    21:00 +9°C° 0 mm 1 mps 766 mmHg 93%
    22:00 +8°C° 0 mm 1 mps 767 mmHg 93%
    23:00 +8°C° 0 mm 1 mps 767 mmHg 94%

    9 April, Thursday

    Time Temperature Precipitation Wind Pressure Humidity
    00:00 +7°C° 0 mm 0 mps 767 mmHg 94%
    01:00 +8°C° 0 mm 1 mps 767 mmHg 93%
    02:00 +8°C° 0 mm 1 mps 767 mmHg 92%
    03:00 +7°C° 0 mm 2 mps 767 mmHg 91%
    04:00 +6°C° 0 mm 2 mps 767 mmHg 90%
    05:00 +6°C° 0 mm 2 mps 767 mmHg 89%
    06:00 +6°C° 0 mm 2 mps 767 mmHg 88%
    07:00 +7°C° 0 mm 2 mps 767 mmHg 84%
    08:00 +7°C° 0 mm 2 mps 767 mmHg 81%
    09:00 +7°C° 0 mm 2 mps 768 mmHg 77%
    10:00 +8°C° 0 mm 3 mps 768 mmHg 75%
    11:00 +9°C° 0 mm 3 mps 768 mmHg 73%
    12:00 +9°C° 0 mm 3 mps 768 mmHg 71%
    13:00 +9°C° 0 mm 3 mps 767 mmHg 71%
    14:00 +9°C° 0 mm 3 mps 767 mmHg 72%
    15:00 +9°C° 0 mm 3 mps 767 mmHg 72%
    16:00 +9°C° 0 mm 2 mps 767 mmHg 73%
    17:00 +9°C° 0 mm 2 mps 766 mmHg 74%
    18:00 +8°C° 0 mm 2 mps 766 mmHg 76%
    19:00 +8°C° 0 mm 2 mps 766 mmHg 77%
    20:00 +7°C° 0 mm 2 mps 766 mmHg 78%
    21:00 +6°C° 0 mm 2 mps 766 mmHg 80%
    22:00 +6°C° 0 mm 2 mps 766 mmHg 81%
    23:00 +6°C° 0 mm 2 mps 766 mmHg 81%

    10 April, Friday

    Time Temperature Precipitation Wind Pressure Humidity
    00:00 +6°C° 0 mm 1 mps 765 mmHg 82%
    01:00 +6°C° 0.2 mm 1 mps 765 mmHg 84%
    02:00 +6°C° 0.2 mm 1 mps 764 mmHg 85%
    03:00 +6°C° 0.2 mm 1 mps 763 mmHg 86%
    04:00 +6°C° 1 mm 1 mps 763 mmHg 89%
    05:00 +6°C° 1 mm 1 mps 763 mmHg 92%
    06:00 +6°C° 1 mm 1 mps 762 mmHg 95%
    07:00 +7°C° 0.7 mm 1 mps 762 mmHg 95%
    08:00 +7°C° 0.7 mm 1 mps 762 mmHg 95%
    09:00 +7°C° 0.7 mm 1 mps 762 mmHg 95%
    10:00 +8°C° 0.4 mm 1 mps 761 mmHg 96%
    11:00 +8°C° 0.4 mm 1 mps 761 mmHg 96%
    12:00 +9°C° 0.4 mm 1 mps 761 mmHg 96%
    13:00 +10°C° 0.1 mm 1 mps 760 mmHg 95%
    14:00 +10°C° 0.1 mm 1 mps 760 mmHg 95%
    15:00 +10°C° 0.1 mm 2 mps 760 mmHg 94%
    16:00 +10°C° 0.1 mm 2 mps 759 mmHg 95%
    17:00 +10°C° 0.1 mm 2 mps 759 mmHg 96%
    18:00 +10°C° 0.1 mm 2 mps 759 mmHg 96%
    19:00 +10°C° 0 mm 2 mps 759 mmHg 96%
    20:00 +10°C° 0 mm 3 mps 759 mmHg 96%
    21:00 +9°C° 0 mm 3 mps 759 mmHg 96%
    22:00 +9°C° 0 mm 3 mps 759 mmHg 96%
    23:00 +9°C° 0 mm 3 mps 759 mmHg 96%
    Show more